Simultaneous Nadir Overpasses (SNOs) Predictions

Prediction of SNOs between GOES-16 and NOAA-19 Satellite Orbit:

Table of predicted SNOs for the next 14.0 days since TLE Epoch: 2/25/2023
Index Date Time (GOES-16) GOES-16 Lat,Lon NOAA-19 Lat,Lon Distance(km) Time Diff (sec)
1 02/26/2023 01:26:16 -0.02, -75.19 -0.15, -75.72 61.78 80
2 02/27/2023 01:11:38 -0.01, -75.19 0.52, -72.81 271.09 80
3 03/01/2023 13:34:33 0.02, -75.22 0.57, -77.62 274.01 80
4 03/02/2023 13:19:56 0.02, -75.22 -0.12, -74.71 59.60 80
5 03/03/2023 13:07:57 0.02, -75.23 -0.76, -71.78 393.30 80
6 03/05/2023 01:42:56 -0.03, -75.24 -1.05, -79.53 490.44 80
7 03/06/2023 01:30:59 -0.03, -75.25 -0.37, -76.62 156.38 80
8 03/07/2023 01:16:22 -0.03, -75.26 0.32, -73.70 177.89 80
9 03/09/2023 13:39:13 0.04, -75.32 0.79, -78.50 362.93 80
10 03/10/2023 13:27:16 0.03, -75.34 0.08, -75.59 28.06 80
